Location:  
MeteoStar


Sort by weather type Sort by elevation Sort by visibility Sort from west to east north Sort from north to south Alphabetically Sort from strongest wind speed Sort from lowest to highest pressure Sort from highest to lowest dew point temperature Sort coolest temperatures to warmest Sort warm temperatures to coolest
 Metric

Current Observations for Saudi Arabia

Abha09:00ZPartly Cloudy86 52S 13 846856
Al Ahsa09:00ZNot Avail.109 451002.3S 10 105587
Al Baha09:00ZClear93 45NE 8 895419
Al Qaysumah09:00ZNot Avail.111 7561003.5S 6 1261174
Al-Jouf09:00ZNot Avail.109 3031005.9SSE 17 1022260
Arar09:00ZNot Avail.111 6131005.7E 9 1121820
Bisha09:00ZNot Avail.100 431005.6E 3 963828
Dawadmi09:00ZPartly Cloudy103 277997.5ESE 18 963248
Dhahran09:00ZNot Avail.109 641001.0N 4 11385
Gassim09:00ZPartly Cloudy108 5461003.2NE 5 1052125
Gizan09:00ZClear99 8461004.1SW 13 12719
Guriat09:00ZNot Avail.95 6161006.4W 2 951669
Hafr Al-Batin09:00ZMostly Cloudy109 5461004.0NE 9 1071354
Hail09:00ZNot Avail.104 4561007.6ESE 8 1003330
Jeddah King Abdul Aziz International Airport 09:00ZNot Avail.97 7761003.1W 12 11149
Khamis Mushait09:00ZClear88 506SSW 6 856778
King Khaled International Airport09:00ZNot Avail.108 3631004.2S 8 1012014
Madinah09:00ZNot Avail.109 2561005.9S 4 1022145
Makkah09:00ZClear99 7061002.9NNW 2 1051017
Najran09:00ZClear102 3761005.4N 6 973976
Rafha09:00ZDust109 3031004.1E 5 1021473
Sharurah09:00ZClear106 3731003.0ENE 10 1002362
Tabuk09:00ZClear95 5231007.0SSW 5 922552
Taif09:00ZNot Avail.97 3431008.2NNE 7 924849
Turaif09:00ZNot Avail.104 4131007.7SE 16 992667
Wadi Al Dawasser Airport09:00ZPartly Cloudy108 6431002.2WSW 8 1112047
Wejh09:00ZNot Avail.91 8431004.1WNW 13 11865
Yenbo09:00ZNot Avail.108 6331001.1SSW 10 11026

Atlantic
Tropical Watch